Wind_Speed
40 42 42 40 39 36 33 31 31 31 32 33 35 37 40 43 48 51 53 56 58 60 62 61 62 66 70 73 75 80 82 85 88 91 93 96 97 102 103 104 108 110 107 100
38 38 38 37 34 32 30 28 29 33 35 37 40 43 46 49 53 57 61 64 65 68 70 71 73 75 77 79 80 82 82 83 86 89 92 93 95 98 102 105 105 106 107 108
35 35 33 32 30 28 28 29 32 35 38 41 45 47 50 55 59 62 65 68 70 73 74 75 77 80 82 85 87 88 87 89 90 90 91 92 93 94 96 101 101 102 103 106
33 33 31 28 28 28 29 32 35 39 43 47 51 53 55 59 62 64 67 69 71 70 71 75 77 78 81 85 89 92 93 95 96 97 96 96 97 96 97 97 101 102 101 102
32 30 27 24 28 30 32 35 38 43 47 49 52 56 59 64 67 70 73 72 70 71 74 76 79 82 84 85 86 88 94 96 98 99 99 101 101 101 102 102 101 103 106 105
32 27 22 25 29 33 35 40 43 47 48 51 56 61 63 68 72 75 73 71 71 76 79 80 81 84 84 85 86 89 90 92 93 96 98 100 102 103 104 106 106 104 106 106
29 25 24 28 30 33 38 43 45 47 51 56 59 61 68 73 75 73 73 74 79 83 84 82 82 83 83 83 84 85 87 90 91 92 93 94 95 98 100 102 105 107 108 107
29 26 26 30 33 37 41 45 48 50 52 55 62 69 70 72 72 73 76 80 83 82 78 75 75 78 79 80 80 80 80 81 84 87 89 89 89 88 89 90 93 96 100 101
32 30 28 31 35 40 42 45 50 54 59 61 67 66 67 70 73 77 79 78 76 74 72 71 72 74 76 77 79 79 79 79 79 78 79 81 82 83 84 87 89 90 92 94
34 33 30 34 38 42 47 51 56 60 63 66 62 65 72 72 75 72 71 71 69 69 68 69 71 72 73 74 75 76 76 77 78 79 78 76 78 79 79 80 83 85 87 89
34 34 35 39 42 46 50 55 60 63 69 67 64 67 71 76 75 75 73 72 69 68 67 70 70 73 72 71 68 68 68 69 72 74 76 75 75 76 77 78 80 85 87 87
34 36 39 42 46 52 56 60 62 66 66 67 68 67 74 75 78 77 74 73 71 66 66 72 70 62 55 50 46 43 44 44 47 49 52 56 58 62 64 67 70 73 75 75
37 40 43 46 50 54 59 60 62 65 66 68 69 74 77 78 81 79 75 73 65 65 69 62 50 42 34 31 29 28 27 26 28 31 34 38 41 44 47 52 58 59 60 61
37 42 45 47 51 56 58 62 63 65 65 66 73 75 78 83 83 81 77 71 68 69 55 43 35 27 24 23 24 25 24 22 23 25 27 30 32 36 40 45 48 50 52 54
37 39 43 48 53 57 61 62 64 64 67 69 72 76 80 81 80 77 71 68 70 55 41 29 26 22 23 24 25 25 25 26 27 30 31 33 33 33 37 40 40 40 42 43
37 42 48 53 53 57 59 61 60 64 67 71 74 77 79 80 77 72 66 65 50 36 31 27 23 22 22 26 28 30 30 31 34 35 35 35 35 35 35 37 36 34 33 35
41 44 47 51 53 53 56 57 59 63 67 71 75 76 77 74 71 66 63 54 39 32 26 26 26 28 29 32 36 38 38 38 39 40 40 39 37 36 34 33 33 30 27 26
44 46 47 47 48 50 54 54 58 62 67 73 73 76 76 68 67 67 58 42 34 30 27 29 30 33 38 41 43 45 46 46 48 46 43 40 37 35 33 30 29 27 25 18
41 44 46 45 49 53 53 55 56 61 69 73 70 70 65 60 63 68 50 35 31 28 28 32 34 39 42 45 49 52 54 53 49 44 40 36 34 33 29 26 26 23 21 16
44 47 48 47 48 48 51 54 56 62 69 71 68 63 57 58 57 64 50 34 33 30 29 36 43 47 50 54 56 55 50 45 40 34 34 28 28 28 24 21 20 18 15 10
48 48 48 48 49 50 54 56 59 65 69 71 65 58 56 59 61 54 41 37 36 34 38 46 50 54 54 52 46 43 38 32 29 23 24 22 23 23 16 13 12 10 7 11
49 49 49 51 51 52 55 58 62 67 69 71 66 57 55 61 62 50 35 32 34 39 46 52 57 56 52 45 39 34 29 24 18 17 20 23 23 20 10 5 7 4 12 15
48 49 49 52 53 52 55 60 65 69 68 72 66 56 56 61 60 42 33 36 37 43 50 55 56 55 45 38 31 25 19 15 13 13 15 19 23 16 8 3 4 12 15 18
47 49 51 53 54 54 56 61 67 69 71 74 65 55 56 59 56 39 36 36 40 48 55 58 56 46 37 31 26 21 14 9 5 9 14 21 24 17 12 9 13 18 19 23
47 49 51 52 52 54 56 62 67 70 73 75 62 57 57 59 52 38 37 38 45 54 57 56 45 34 31 29 22 14 8 3 7 13 23 28 24 19 15 14 22 23 22 25
48 48 49 50 52 53 57 62 67 70 72 72 60 57 59 59 50 39 37 41 50 56 55 45 34 29 28 21 16 14 11 11 17 26 30 29 23 19 17 20 28 29 29 30
Wind_Direction
299 297 296 295 298 296 295 294 295 296 295 299 300 298 295 293 293 292 290 288 287 284 281 274 269 269 269 267 265 264 264 263 262 262 262 260 259 257 256 256 256 256 256 256
297 293 296 299 299 296 293 292 293 295 298 298 296 295 295 294 292 290 289 287 286 285 283 279 277 274 273 272 270 268 266 264 262 261 261 261 262 263 260 258 259 260 260 260
296 292 293 299 298 293 290 291 292 290 292 294 293 293 292 290 289 289 290 290 289 287 285 282 279 276 275 273 271 268 266 266 265 264 263 262 261 261 262 260 259 259 259 259
296 293 294 295 290 287 289 292 294 296 297 296 295 295 292 290 289 291 291 291 289 288 286 284 282 278 274 272 271 270 267 266 264 263 262 262 262 261 263 264 263 261 261 262
297 295 296 291 286 288 289 293 295 296 298 296 294 294 296 297 299 298 296 295 292 290 288 285 281 280 279 276 273 269 268 268 267 265 264 264 263 262 262 261 262 264 262 261
301 301 294 285 286 289 293 295 298 300 299 298 297 298 298 300 300 298 297 294 292 293 291 285 281 280 279 276 274 273 271 270 268 267 267 266 266 264 263 264 263 262 262 263
307 298 287 282 287 292 296 299 300 300 300 301 300 299 303 301 299 301 300 297 293 293 293 289 286 284 282 279 276 274 273 272 270 269 267 266 266 265 265 265 266 265 263 262
303 294 285 289 296 297 299 302 304 305 304 305 307 308 306 303 305 302 298 296 294 294 292 289 286 283 281 281 280 279 276 274 272 271 271 271 270 268 267 266 266 267 266 265
295 293 287 289 289 295 303 304 304 304 305 309 309 306 304 309 308 305 303 299 297 295 293 290 286 284 281 280 279 278 277 277 276 275 272 272 271 271 269 269 267 267 267 265
293 292 287 291 294 299 302 303 306 308 310 310 309 309 307 311 311 306 303 300 301 300 297 294 289 286 284 283 280 279 277 277 277 275 275 274 273 271 271 270 271 269 268 267
293 291 292 293 296 299 303 304 307 309 313 312 313 310 311 312 314 311 309 307 307 304 299 295 295 294 289 285 281 278 275 272 271 271 272 272 273 273 273 273 272 271 270 267
289 286 290 292 299 302 303 307 310 314 314 312 314 314 312 315 315 314 313 311 311 306 299 302 299 299 294 291 287 282 277 274 272 270 268 268 268 270 270 270 270 271 273 274
286 287 290 296 301 301 305 309 314 316 314 317 317 318 318 318 316 316 316 314 310 305 307 304 304 299 298 298 294 289 284 280 274 270 268 267 267 268 271 273 275 277 276 275
289 289 292 295 298 302 307 313 315 316 317 321 321 322 320 320 319 319 319 316 311 309 309 306 301 301 300 297 295 297 296 291 284 278 274 273 274 275 275 277 278 279 280 278
300 297 295 299 303 307 312 315 318 320 322 325 325 323 322 319 318 319 318 314 311 315 306 300 290 291 291 293 293 291 291 294 292 288 287 285 285 286 287 286 286 283 278 279
305 303 303 304 308 312 313 318 322 324 324 326 328 324 321 320 319 319 319 317 320 316 303 292 286 287 292 291 290 291 292 289 287 287 288 287 289 291 292 292 292 293 285 280
305 305 307 307 312 315 317 321 322 323 325 325 327 324 319 321 319 321 328 327 328 318 304 301 305 307 302 303 301 295 290 286 284 284 283 283 286 288 290 295 301 301 298 285
304 307 308 310 313 314 318 320 323 325 325 328 328 325 323 324 324 327 333 330 322 311 304 304 309 309 307 302 298 294 292 291 288 285 279 275 277 282 289 298 308 308 316 311
312 311 311 312 313 316 320 321 324 325 327 332 330 327 326 327 329 327 334 325 311 303 304 309 310 307 305 305 303 300 297 293 287 280 274 267 268 271 282 296 309 317 325 322
315 314 315 315 315 317 320 321 325 328 330 336 333 328 327 326 332 329 330 327 314 313 316 316 315 315 316 311 307 302 297 292 285 277 267 259 252 254 266 290 313 325 329 341
314 317 319 321 322 321 323 325 329 332 333 339 334 331 331 330 333 333 329 320 318 320 321 320 319 320 316 313 309 302 299 294 288 275 252 232 229 228 248 290 317 333 34 48
316 318 320 322 323 323 325 326 331 334 335 340 337 335 334 333 335 336 328 317 319 324 326 324 323 322 324 321 314 309 306 298 283 253 230 215 205 204 223 282 330 44 87 79
315 317 318 321 322 324 326 328 333 338 339 341 338 337 338 336 337 338 326 324 329 329 325 326 327 327 326 322 319 319 314 298 269 240 210 198 183 177 179 136 83 95 95 94
314 317 318 321 322 325 328 329 333 336 339 341 341 340 341 339 339 337 329 331 330 328 329 332 331 330 330 332 333 329 322 308 289 208 177 165 158 159 145 126 109 100 99 101
313 317 318 321 321 325 328 329 333 336 339 340 344 342 341 341 340 335 332 331 334 332 334 333 333 338 345 347 345 348 1 51 110 147 146 148 147 143 131 120 113 104 103 109
312 315 317 319 321 326 327 330 332 335 338 341 347 345 340 342 340 337 335 337 334 333 333 335 342 351 356 359 16 35 55 96 123 136 142 141 144 133 126 118 114 111 113 116
Height
10822 10816 10813 10810 10806 10803 10801 10798 10796 10793 10792 10792 10791 10788 10785 10781 10774 10769 10767 10764 10760 10758 10755 10755 10754 10749 10744 10741 10739 10738 10739 10739 10737 10736 10737 10741 10743 10745 10750 10751 10752 10756 10763 10771
10815 10809 10806 10802 10800 10798 10795 10793 10791 10788 10787 10785 10781 10778 10776 10771 10766 10759 10753 10748 10746 10741 10738 10736 10731 10728 10724 10721 10719 10716 10716 10716 10714 10713 10713 10718 10719 10718 10724 10729 10734 10737 10740 10747
10807 10803 10800 10796 10793 10791 10789 10788 10785 10782 10779 10776 10772 10769 10766 10760 10754 10748 10742 10735 10729 10723 10718 10715 10711 10704 10699 10693 10691 10690 10692 10689 10687 10688 10691 10694 10693 10694 10696 10698 10704 10705 10710 10712
10799 10795 10792 10789 10787 10785 10783 10781 10778 10774 10771 10765 10760 10757 10753 10745 10740 10735 10728 10719 10711 10707 10699 10692 10685 10680 10676 10671 10664 10661 10661 10659 10658 10659 10662 10663 10666 10671 10671 10674 10675 10682 10687 10690
10790 10788 10785 10782 10780 10778 10776 10773 10770 10766 10761 10756 10751 10743 10739 10726 10720 10713 10706 10699 10692 10685 10678 10671 10663 10657 10650 10644 10641 10638 10634 10631 10631 10635 10637 10637 10639 10643 10644 10646 10649 10651 10657 10662
10782 10781 10779 10776 10773 10770 10768 10764 10762 10757 10751 10745 10737 10730 10722 10712 10702 10693 10686 10678 10670 10662 10653 10646 10639 10631 10625 10621 10617 10612 10610 10606 10606 10606 10607 10609 10609 10611 10615 10614 10620 10626 10628 10632
10775 10774 10771 10768 10767 10764 10759 10755 10751 10748 10742 10733 10724 10718 10706 10695 10683 10676 10666 10656 10645 10636 10627 10619 10611 10605 10600 10595 10591 10588 10585 10581 10579 10578 10579 10580 10580 10583 10586 10586 10587 10590 10594 10600
10767 10766 10764 10760 10758 10754 10751 10745 10739 10735 10729 10722 10710 10699 10691 10676 10669 10659 10647 10634 10623 10613 10604 10596 10588 10581 10573 10569 10565 10562 10559 10558 10555 10554 10551 10552 10554 10556 10558 10559 10558 10560 10561 10565
10758 10757 10756 10754 10751 10746 10741 10735 10730 10723 10717 10710 10700 10688 10672 10663 10651 10638 10624 10611 10601 10591 10583 10575 10566 10559 10552 10547 10543 10539 10535 10531 10528 10528 10527 10528 10529 10530 10532 10531 10532 10534 10532 10532
10749 10749 10748 10745 10741 10734 10730 10725 10719 10712 10702 10695 10685 10671 10653 10645 10633 10618 10604 10594 10583 10573 10563 10554 10545 10537 10529 10524 10520 10516 10513 10511 10507 10503 10502 10505 10504 10503 10505 10507 10506 10503 10503 10504
10741 10739 10738 10735 10730 10726 10721 10714 10707 10698 10686 10672 10670 10654 10640 10625 10612 10596 10583 10572 10563 10553 10543 10531 10521 10514 10507 10500 10495 10492 10490 10489 10486 10485 10482 10484 10483 10482 10483 10483 10481 10476 10475 10478
10732 10730 10729 10726 10721 10713 10708 10703 10694 10683 10671 10659 10649 10643 10622 10609 10592 10578 10566 10554 10542 10533 10521 10510 10499 10490 10483 10478 10474 10471 10469 10469 10468 10467 10465 10464 10466 10465 10463 10461 10458 10455 10454 10452
10726 10724 10720 10716 10711 10702 10695 10690 10682 10671 10657 10646 10632 10616 10601 10589 10574 10559 10547 10535 10526 10514 10504 10492 10483 10477 10471 10466 10462 10460 10458 10458 10456 10455 10454 10454 10454 10452 10450 10447 10443 10441 10439 10435
10718 10715 10712 10708 10702 10693 10685 10677 10669 10656 10645 10634 10613 10604 10583 10567 10551 10537 10526 10516 10505 10494 10487 10478 10472 10467 10463 10460 10456 10453 10451 10451 10449 10448 10447 10445 10444 10442 10438 10434 10432 10429 10425 10420
10711 10707 10702 10698 10692 10682 10672 10664 10652 10640 10627 10617 10605 10585 10570 10553 10539 10527 10516 10503 10487 10478 10470 10468 10464 10460 10458 10454 10450 10447 10445 10443 10440 10437 10437 10435 10433 10430 10426 10422 10419 10415 10411 10407
10703 10699 10692 10684 10679 10671 10660 10651 10639 10626 10615 10604 10590 10574 10555 10539 10524 10515 10505 10486 10475 10466 10461 10459 10457 10455 10451 10448 10443 10440 10437 10435 10431 10428 10427 10425 10422 10419 10415 10411 10408 10403 10399 10395
10695 10690 10684 10675 10668 10659 10650 10640 10631 10617 10606 10594 10580 10560 10544 10530 10511 10502 10491 10472 10465 10458 10456 10451 10448 10446 10443 10439 10435 10430 10428 10426 10422 10419 10417 10415 10412 10410 10406 10402 10398 10394 10390 10387
10685 10680 10674 10668 10661 10652 10643 10634 10623 10609 10595 10584 10565 10546 10529 10516 10497 10487 10478 10467 10458 10455 10451 10446 10443 10438 10434 10430 10424 10419 10415 10411 10408 10405 10404 10403 10402 10400 10397 10394 10390 10386 10382 10379
10676 10670 10665 10659 10651 10642 10633 10624 10615 10603 10588 10572 10554 10537 10522 10508 10494 10474 10472 10461 10457 10451 10446 10440 10436 10432 10426 10420 10412 10403 10397 10392 10389 10387 10387 10391 10392 10391 10391 10388 10385 10381 10377 10374
10666 10660 10654 10648 10641 10635 10626 10616 10606 10594 10580 10563 10546 10530 10515 10501 10493 10469 10459 10455 10450 10446 10440 10434 10427 10418 10411 10402 10394 10384 10377 10372 10369 10370 10373 10377 10381 10383 10385 10385 10382 10379 10375 10372
10657 10650 10643 10636 10629 10621 10614 10605 10594 10582 10569 10553 10537 10521 10504 10490 10477 10466 10453 10445 10441 10439 10432 10423 10414 10406 10396 10386 10376 10366 10360 10356 10355 10356 10359 10365 10370 10376 10381 10382 10381 10378 10375 10373
10648 10641 10633 10626 10619 10613 10602 10593 10584 10572 10557 10544 10526 10512 10496 10480 10467 10456 10448 10443 10438 10430 10421 10411 10402 10390 10378 10368 10360 10352 10348 10346 10345 10345 10349 10354 10362 10372 10378 10380 10379 10378 10376 10374
10639 10632 10624 10617 10609 10603 10593 10582 10573 10561 10548 10535 10519 10503 10488 10474 10460 10449 10441 10437 10432 10424 10414 10404 10391 10377 10366 10358 10350 10344 10340 10338 10337 10339 10343 10349 10359 10369 10375 10378 10379 10379 10378 10377
10630 10622 10615 10607 10598 10589 10583 10573 10562 10551 10538 10526 10511 10494 10482 10469 10455 10444 10438 10433 10426 10417 10405 10393 10381 10370 10359 10351 10344 10339 10336 10334 10335 10338 10342 10349 10360 10368 10374 10377 10379 10381 10381 10381
10620 10613 10606 10598 10590 10581 10574 10565 10552 10540 10529 10519 10502 10486 10475 10463 10450 10441 10435 10428 10421 10408 10397 10386 10376 10366 10356 10348 10342 10338 10335 10335 10336 10340 10345 10353 10363 10370 10375 10379 10381 10383 10385 10385
10610 10605 10598 10590 10582 10575 10565 10556 10545 10534 10524 10511 10496 10482 10467 10458 10446 10437 10432 10424 10413 10402 10392 10382 10373 10363 10356 10350 10345 10341 10340 10339 10341 10344 10352 10359 10366 10373 10377 10381 10385 10386 10389 10391